This is the latest recevied weather packets stored in our database for station/object N5LSN. If no packets are shown the sender has not sent any weather packets the latest 10 day(s).
| Time | Temp. | Humidity | Pressure | Rain* | Wind** | Luminosity | Snow |
|---|---|---|---|---|---|---|---|
| 1777083316 | 16.11° C | 99% | 1012.6 hPa | 10.16 mm | - | 0 W/m² | - |
| 1777083012 | 16.11° C | 99% | 1011.4 hPa | 10.16 mm | - | 0 W/m² | - |
| 1777082712 | 16.11° C | 99% | 1011 hPa | 1.78 mm | - | 0 W/m² | - |
| 1777082408 | 16.11° C | 99% | 1011 hPa | 0 mm | - | 0 W/m² | - |
| 1777082108 | 16.11° C | 99% | 1010.9 hPa | 0 mm | - | 0 W/m² | - |
| 1777081803 | 16.11° C | 99% | 1010.7 hPa | 0 mm | - | 0 W/m² | - |
| 1777081498 | 16.11° C | 99% | 1011 hPa | 0 mm | - | 0 W/m² | - |
| 1777081195 | 16.11° C | 99% | 1010.9 hPa | 0 mm | - | 0 W/m² | - |
| 1777080894 | 16.11° C | 99% | 1010 hPa | 0 mm | - | 0 W/m² | - |
| 1777080589 | 16.11° C | 99% | 1009.7 hPa | 0 mm | - | 0 W/m² | - |
| 1777080284 | 16.11° C | 99% | 1009.7 hPa | 0 mm | - | 0 W/m² | - |
| 1777079979 | 16.11° C | 99% | 1009.9 hPa | 0 mm | - | 0 W/m² | - |
| 1777079678 | 16.11° C | 99% | 1009.7 hPa | 0 mm | - | 0 W/m² | - |
| 1777079374 | 16.11° C | 99% | 1009.9 hPa | 0 mm | - | 0 W/m² | - |
| 1777079070 | 16.11° C | 99% | 1009.8 hPa | 0 mm | - | 0 W/m² | - |
| 1777078766 | 16.11° C | 99% | 1009.9 hPa | 0 mm | - | 0 W/m² | - |
| 1777078463 | 16.11° C | 99% | 1009.9 hPa | 0 mm | - | 1 W/m² | - |
| 1777078163 | 16.11° C | 99% | 1010 hPa | 0 mm | - | 1 W/m² | - |
| 1777077858 | 16.11° C | 99% | 1009.8 hPa | 0 mm | - | 2 W/m² | - |
| 1777077556 | 16.11° C | 99% | 1010 hPa | 0 mm | - | 2 W/m² | - |
| 1777077251 | 16.11° C | 99% | 1010.1 hPa | 0 mm | - | 4 W/m² | - |
| 1777076950 | 16.11° C | 99% | 1009.9 hPa | 0 mm | - | 5 W/m² | - |
| 1777076646 | 16.67° C | 99% | 1010 hPa | 0 mm | - | 9 W/m² | - |
| 1777076343 | 16.67° C | 99% | 1009.9 hPa | 0 mm | - | 12 W/m² | - |
| 1777076037 | 16.67° C | 99% | 1010.2 hPa | 0 mm | - | 5 W/m² | - |
* Rain latest hour (hover to see other rain measurements)
** Current wind speed in m/s (hover to see current wind gust speed)